Regional Weather Roundup
Issued by NWS Grand Forks, ND

Home | Current Version | Previous Version | Graphics & Text | Print | Product List | Glossary On
Versions: 1 2 3 4 5 6 7 8 9 10 11 12 13 14 15 16 17 18 19 20 21 22 23 24 25 26 27 28 29 30 31 32 33 34 35 36 37 38 39 40 41 42 43 44 45 46 47 48 49 50
000
ASUS43 KFGF 310431
RWRFGF
PRAIRIE TO PINES  WEATHER ROUNDUP
NATIONAL WEATHER SERVICE EASTERN NORTH DAKOTA/GRAND FORKS ND
1100 PM CDT SAT JUL 30 2016

 **SATELLITE DATA USED TO AUGMENT SKY COVER AT AUTOMATED STATIONS**
 *****  WEATHER ACROSS EASTERN NORTH DAKOTA  *****

CITY           SKY/WX    TMP DP  RH WIND       PRES   REMARKS
GRAND FORKS    CLEAR     71  59  65 SE10      29.88S
GRAND FRKS AFB CLEAR     68  61  76 S10       29.89R
DEVILS LAKE    PTCLDY    71  63  75 SE14      29.87S
FARGO          CLEAR     72  57  59 SE10      29.91S
WAHPETON ARPT  CLEAR     63  55  77 SE7       29.94S
$$

 ***** WEATHER ACROSS CENTRAL AND WESTERN NORTH DAKOTA  *****

CITY           SKY/WX    TMP DP  RH WIND       PRES   REMARKS
BISMARCK       CLEAR     72  63  73 SE12      29.80S
MINOT          CLEAR     72  66  81 E7        29.80S
JAMESTOWN      CLEAR     69  61  75 SE14      29.88R
MINOT AFB      CLEAR     67  64  89 SE10      29.79S
GARRISON         N/A     73  67  81 SE8       29.80R
WILLISTON      PTCLDY    76  55  48 SE7       29.76S
DICKINSON      CLEAR     71  59  65 SE9       29.77F
HETTINGER      CLEAR     75  58  55 E13       29.79F
$$

 *****  OTHER AIRPORT OBSERVATIONS IN OUR AREA  *****

CITY           SKY/WX    TMP DP  RH WIND       PRES   REMARKS
WALHALLA       FAIR      72  66  83 S12       29.86S
GRAFTON AIRPOR FAIR      68  64  88 S9        29.89S
VALLEY CITY AR FAIR      68  63  83 S13       29.93R
CANDO          MOCLDY    68  66  94 SE10      29.87F
CAVALIER APRT  FAIR      70  63  78 S8        29.87S
GWINNER        FAIR      66  61  82 SE8       29.92S
SHEYENNE NWR     N/A     68  58  71 SE9       29.95S
ROLLA          FAIR      64  63  94 S7        29.86F
 ***** THE ABOVE OBSERVATIONS ARE NON NWS ARE NOT QUALITY
       CONTROLLED AND MAY MIS-REPORT RAIN FOR SNOW...
$$

  *****  WEATHER ACROSS NORTHERN MINNESOTA  *****

CITY           SKY/WX    TMP DP  RH WIND       PRES   REMARKS
FLAG ISLAND    CLEAR     73  64  73 S12G17    29.92S
WARROAD        CLEAR     70  64  83 S8        29.94S
ROSEAU         CLEAR     68  63  83 S7        29.92S
HALLOCK        CLEAR     66  64  94 S7        29.88S
THF RVR FALLS  PTCLDY    67  62  84 SE7       29.94S
BAUDETTE       CLEAR     64  59  83 SE7       29.96S
WASKISH        CLEAR     61  59  94 CALM      29.98S
CROOKSTON      CLEAR     64  61  88 SE7       29.91F
STEPHEN NDAWN    N/A     66  63  88 S5          N/A
GREENBUSH NDAW   N/A     64  61  88 S3          N/A
$$
  *****  WEATHER ACROSS CENTRAL AND WEST MINNESOTA  *****

CITY           SKY/WX    TMP DP  RH WIND       PRES   REMARKS
FOSSTON        CLEAR     63  57  82 SE5       29.96S
BEMIDJI        CLEAR     64  57  79 SE6       29.97F
PARK RAPIDS    CLEAR     70  59  68 SE6       29.98S
ELBOW LAKE     FAIR      65  58  78 E6        29.97S
WADENA         CLEAR     63  57  82 CALM      29.98S
DETROIT LAKES  CLEAR     68  61  77 S7        29.98S
MOORHEAD       CLEAR     66  61  82 CALM      29.93S
FERGUS FALLS   CLEAR     66  59  77 SE7       29.97S
MORRIS MN      CLEAR     63  59  88 E7        29.95F
STAPLES        CLEAR     66  61  82 SE3       29.99S
$$
  *****  WEATHER ELSEWHERE ACROSS MINNESOTA  *****

CITY           SKY/WX    TMP DP  RH WIND       PRES   REMARKS
DULUTH         PTCLDY    62  60  93 E8        30.04R
INTRNTL FALLS  CLEAR     62  59  90 SE5       29.98F
ELY            CLEAR     63  57  82 CALM      30.04S
CLOQUET        CLEAR     61  57  88 E3        30.03S
WHEATON        CLEAR     63  61  94 SE7       29.96S
BRAINERD       CLEAR     67  63  87 SE6       29.99S
HIBBING        CLEAR     56  55  97 CALM      30.02S
ALEXANDRIA     CLEAR     66  58  75 SE5       30.00R
SAINT CLOUD    PTCLDY    68  64  87 SE3       29.99R
MINNEAPOLIS    PTCLDY    72  65  78 SE6       29.99S
$$

  *****  WEATHER ACROSS SOUTH DAKOTA  *****

CITY           SKY/WX    TMP DP  RH WIND       PRES   REMARKS
SIOUX FALLS    CLOUDY    73  60  63 S9        29.96S
BROOKINGS      CLOUDY    67  60  78 SE9       29.96S
WATERTOWN      CLEAR     69  59  70 SE9       29.95S
HURON          CLOUDY    74  62  66 SE9       29.89F
SISSETON         N/A     63  59  87 S6        29.93R
ABERDEEN       CLEAR     70  60  70 SE10      29.89S
MITCHELL       MOCLDY    74  63  68 SE10      29.90F
PIERRE         MOCLDY    68  59  73 SW16G22   29.83S
MOBRIDGE       PTCLDY    69  63  81 NE22      29.79F
RAPID CITY     CLOUDY    64  61  90 SW12G18   29.91R
$$

  *****  SOME WEATHER IN NEARBY STATES *****

CITY           SKY/WX    TMP DP  RH WIND       PRES   REMARKS
GLASGOW MT     LGT RAIN  73  58  59 E15       29.69F
GREAT FALLS MT CLEAR     72  36  26 W12       29.71R
CHEYENNE WY    PTCLDY    72  58  61 CALM      30.10R
SCOTTSBLUFF NE CLOUDY    73  62  68 E6        29.92R
OMAHA NE       PTCLDY    73  65  75 SE7       29.97R
DES MOINES IA  CLEAR     75  65  70 E7        29.98R
DAVENPORT IA   CLEAR     68  65  90 E5        30.01R
CHICAGO IL     MOCLDY    70  65  84 VRB6      30.01R
EAU CLAIRE WI  CLEAR     68  63  84 S5        30.02R
LA CROSSE WI   CLEAR     71  65  81 E6        30.01R
$$

  *****  SOME NATIONAL WEATHER *****

CITY           SKY/WX    TMP DP  RH WIND       PRES   REMARKS
LA GUARDIA NY  CLOUDY    77  73  87 SE7       30.03S
RALEIGH NC     MOCLDY    78  74  87 SE6       30.01S
ATLANTA GA     PTCLDY    74  74 100 SW5       30.06R
NEW ORLEANS LA PTCLDY    85  75  72 SW6       30.03R HX  93
OKLAHOMA CITY  PTCLDY    77  71  82 SE5       29.94R
ALBUQUERQUE NM TSTM      66  61  84 SE18      30.24R
SALT LAKE CITY MOCLDY    87  48  25 N9        29.94R
LOS ANGELES CA CLEAR     70  65  84 W7        29.85R
BOISE ID       CLEAR     89  34  14 NW7       29.73R
SEATTLE WA     PTCLDY    66  54  65 SW12      29.93R
$$

*** WEATHER ACROSS MANITOBA...SASKATCHEWAN AND ONTARIO ***
                ***ONTARIO***

CITY           SKY/WX    TMP DP  RH WIND       PRES   REMARKS
GERALDTON      MOCLDY    59  50  72 S2        30.07R
THUNDER BAY    CLEAR     57  55  94 N2        30.05R
SIOUX LOOKOUT  PTCLDY    57  55  94 S5        29.99R
TORONTO        MOCLDY    72  55  56 E6        30.03F
BIG TROUT LK   PTCLDY    70  61  73 SE5       29.88S
PICKLE LAKE    NOT AVBL
DRYDEN         CLEAR     68  61  77 S6        29.98F
KENORA         PTCLDY    68  63  83 S5        29.96S
$$
                *** MANITOBA***

CITY           SKY/WX    TMP DP  RH WIND       PRES   REMARKS
BRANDON        PTCLDY    68  64  88 SE7       29.82S
DAUPHIN        CLEAR     66  61  82 S3        29.78S
ISLAND LAKE    MOCLDY    73  59  60 S2        29.83R
PILOT MOUND      N/A     64  61  88 SE7         N/A
THE PAS        CLOUDY    70  64  83 SE6       29.75S
THOMPSON       MOCLDY    64  63  94 NE8       29.79S
WINNIPEG       MOCLDY    72  64  78 S12       29.86S
LYNN LAKE      CLEAR     61  57  88 MISG      29.81R
CHURCHILL      CLOUDY    48  46  93 E8        29.92S
GILLAM         MOCLDY    61  59  94 NE7       29.83R
$$
                ***SASKATCHEWAN***

CITY           SKY/WX    TMP DP  RH WIND       PRES   REMARKS
ESTEVAN        PTCLDY    66  61  82 E10       29.77F
KINDERSLEY     TSTM      68  64  88 N16       29.65R
LLOYDMINSTER   MOCLDY    59  57  94 N3        29.71F
PRINCE ALBERT  MOCLDY    66  64  94 NE2       29.70S
REGINA         PTCLDY    70  57  64 SE12      29.72S
YORKTON        CLEAR     68  61  77 SE7       29.75F
N. BATTLEFORD  NOT AVBL
LA RONGE       CLOUDY    63  61  94 CALM      29.72F
SASKATOON      MOCLDY    64  64 100 E8        29.69S
SWIFT CURRENT  CLEAR     64  59  82 S14       29.65F
$$
NOTE: THESE ARE AUTOMATED STATIONS WITH LIMITED QUALITY CONTROL
      "FAIR" INDICATES FEW OR NO CLOUDS BELOW 12,000 FEET WITH NO
      SIGNIFICANT WEATHER AND/OR OBSTRUCTIONS TO VISIBILITY.
      SKY/WX - SKY CONDITION AND SIGNIFICANT WEATHER.
      TMP - AIR TEMPERATURE.    DP   - DEWPOINT TEMPERATURE.
      RH  - RELATIVE HUMIDITY.  PRES - PRESSURE.
      HX  - HEAT INDEX.         WCI  - WIND CHILL INDEX.
$



USA.gov is the U.S. government's official web portal to all federal, state and local government web resources and services.